Year,Month,Day,Hour,Minute,Value (Times are PST for temperature in C)
2016,04,24,07,18,10.20
2016,04,24,07,19,10.30
2016,04,24,07,20,10.30
2016,04,24,07,21,10.30
2016,04,24,07,22,10.30
2016,04,24,07,23,10.30
2016,04,24,07,24,10.30
2016,04,24,07,25,10.30
2016,04,24,07,26,10.30
2016,04,24,07,27,10.30
2016,04,24,07,28,10.30
2016,04,24,07,29,10.30
2016,04,24,07,30,10.30
2016,04,24,07,31,10.30
2016,04,24,07,32,10.30
2016,04,24,07,33,10.30
2016,04,24,07,34,10.30
2016,04,24,07,35,10.40
2016,04,24,07,36,10.40
2016,04,24,07,37,10.40
2016,04,24,07,38,10.40
2016,04,24,07,39,10.40
2016,04,24,07,40,10.40
2016,04,24,07,41,10.40
2016,04,24,07,42,10.40
2016,04,24,07,43,10.40
2016,04,24,07,44,10.40
2016,04,24,07,45,10.40
2016,04,24,07,46,10.50
2016,04,24,07,47,10.50
2016,04,24,07,48,10.50
2016,04,24,07,49,10.50
2016,04,24,07,50,10.50
2016,04,24,07,51,10.50
2016,04,24,07,52,10.60
2016,04,24,07,53,10.60
2016,04,24,07,54,10.60
2016,04,24,07,55,10.60
2016,04,24,07,56,10.60
2016,04,24,07,57,10.60
2016,04,24,07,58,10.60
2016,04,24,07,59,10.70
2016,04,24,08,00,10.70
2016,04,24,08,01,10.70
2016,04,24,08,02,10.70
2016,04,24,08,03,10.70
2016,04,24,08,04,10.70
2016,04,24,08,05,10.70
2016,04,24,08,06,10.70
2016,04,24,08,07,10.70
2016,04,24,08,08,10.70
2016,04,24,08,09,10.70
2016,04,24,08,10,10.70
2016,04,24,08,11,10.70
2016,04,24,08,12,10.70
2016,04,24,08,13,10.70
2016,04,24,08,14,10.70
2016,04,24,08,15,10.70
2016,04,24,08,16,10.70
2016,04,24,08,17,10.70
2016,04,24,08,18,10.70
2016,04,24,08,19,10.70
2016,04,24,08,20,10.70
2016,04,24,08,21,10.70
2016,04,24,08,22,10.70
2016,04,24,08,23,10.70
2016,04,24,08,24,10.70
2016,04,24,08,25,10.70
2016,04,24,08,26,10.70
2016,04,24,08,27,10.70
2016,04,24,08,28,10.70
2016,04,24,08,29,10.60
2016,04,24,08,30,10.60
2016,04,24,08,31,10.60
2016,04,24,08,32,10.60
2016,04,24,08,33,10.60
2016,04,24,08,34,10.60
2016,04,24,08,35,10.60
2016,04,24,08,36,10.60
2016,04,24,08,37,10.60
2016,04,24,08,38,10.60
2016,04,24,08,39,10.60
2016,04,24,08,40,10.60
2016,04,24,08,41,10.60
2016,04,24,08,42,10.60
2016,04,24,08,43,10.60
2016,04,24,08,44,10.60
2016,04,24,08,45,10.60
2016,04,24,08,46,10.60
2016,04,24,08,47,10.60
2016,04,24,08,48,10.60
2016,04,24,08,49,10.60
2016,04,24,08,50,10.60
2016,04,24,08,51,10.60
2016,04,24,08,52,10.60
2016,04,24,08,53,10.60
2016,04,24,08,54,10.60
2016,04,24,08,55,10.50
2016,04,24,08,56,10.50
2016,04,24,08,57,10.50
2016,04,24,08,58,10.50
2016,04,24,08,59,10.50
2016,04,24,09,00,10.40
2016,04,24,09,01,10.40
2016,04,24,09,02,10.40
2016,04,24,09,03,10.40
2016,04,24,09,04,10.40
2016,04,24,09,05,10.40
2016,04,24,09,06,10.40
2016,04,24,09,07,10.40
2016,04,24,09,08,10.40
2016,04,24,09,09,10.40
2016,04,24,09,10,10.40
2016,04,24,09,11,10.40
2016,04,24,09,12,10.40
2016,04,24,09,13,10.40
2016,04,24,09,14,10.40
2016,04,24,09,15,10.40
2016,04,24,09,16,10.40
2016,04,24,09,17,10.40
2016,04,24,09,18,10.40
2016,04,24,09,19,10.50
2016,04,24,09,20,10.50
2016,04,24,09,21,10.50
2016,04,24,09,22,10.50
2016,04,24,09,23,10.60
2016,04,24,09,24,10.60
2016,04,24,09,25,10.60
2016,04,24,09,26,10.60
2016,04,24,09,27,10.60
2016,04,24,09,28,10.60
2016,04,24,09,29,10.60
2016,04,24,09,30,10.60
2016,04,24,09,31,10.60
2016,04,24,09,32,10.60
2016,04,24,09,33,10.60
2016,04,24,09,34,10.70
2016,04,24,09,35,10.70
2016,04,24,09,36,10.70
2016,04,24,09,37,10.70
2016,04,24,09,38,10.70
2016,04,24,09,39,10.70
2016,04,24,09,40,10.70
2016,04,24,09,41,10.70
2016,04,24,09,42,10.80
2016,04,24,09,43,10.80
2016,04,24,09,44,10.80
2016,04,24,09,45,10.80
2016,04,24,09,46,10.80
2016,04,24,09,47,10.80
2016,04,24,09,48,10.80
2016,04,24,09,49,10.80
2016,04,24,09,50,10.90
2016,04,24,09,51,10.90
2016,04,24,09,52,10.90
2016,04,24,09,53,10.90
2016,04,24,09,54,10.90
2016,04,24,09,55,10.90
2016,04,24,09,56,10.90
2016,04,24,09,57,10.90
2016,04,24,09,58,11.00
2016,04,24,09,59,10.90
2016,04,24,10,00,11.00
2016,04,24,10,01,11.00
2016,04,24,10,02,11.00
2016,04,24,10,03,11.00
2016,04,24,10,04,11.00
2016,04,24,10,05,11.00
2016,04,24,10,06,11.00
2016,04,24,10,07,11.00
2016,04,24,10,08,11.00
2016,04,24,10,09,11.00
2016,04,24,10,10,11.00
2016,04,24,10,11,11.00
2016,04,24,10,12,11.00
2016,04,24,10,13,11.00
2016,04,24,10,14,11.00
2016,04,24,10,15,11.00
2016,04,24,10,16,11.10
2016,04,24,10,17,11.10
2016,04,24,10,18,11.10
2016,04,24,10,19,11.10
2016,04,24,10,20,11.20
2016,04,24,10,21,11.20
2016,04,24,10,22,11.20
2016,04,24,10,23,11.20
2016,04,24,10,24,11.20
2016,04,24,10,25,11.10
2016,04,24,10,26,11.10
2016,04,24,10,27,11.10
2016,04,24,10,28,11.10
2016,04,24,10,29,11.10
2016,04,24,10,30,11.10
2016,04,24,10,31,11.10
2016,04,24,10,32,11.10
2016,04,24,10,33,11.10
2016,04,24,10,34,11.10
2016,04,24,10,35,11.10
2016,04,24,10,36,11.10
2016,04,24,10,37,11.10
2016,04,24,10,38,11.10
2016,04,24,10,39,11.10
2016,04,24,10,40,11.20
2016,04,24,10,41,11.20
2016,04,24,10,42,11.20
2016,04,24,10,43,11.20
2016,04,24,10,44,11.20
2016,04,24,10,45,11.20
2016,04,24,10,46,11.20
2016,04,24,10,47,11.20
2016,04,24,10,48,11.20
2016,04,24,10,49,11.20
2016,04,24,10,50,11.20
2016,04,24,10,51,11.20
2016,04,24,10,52,11.20
2016,04,24,10,53,11.20
2016,04,24,10,54,11.30
2016,04,24,10,55,11.30
2016,04,24,10,56,11.30
2016,04,24,10,57,11.40
2016,04,24,10,58,11.40
2016,04,24,10,59,11.50
2016,04,24,11,00,11.50
2016,04,24,11,01,11.50
2016,04,24,11,02,11.60
2016,04,24,11,03,11.60
2016,04,24,11,04,11.60
2016,04,24,11,05,11.60
2016,04,24,11,06,11.60
2016,04,24,11,07,11.60
2016,04,24,11,08,11.70
2016,04,24,11,09,11.70
2016,04,24,11,10,11.80
2016,04,24,11,11,11.90
2016,04,24,11,12,12.00
2016,04,24,11,13,12.20
2016,04,24,11,14,12.20
2016,04,24,11,15,12.20
2016,04,24,11,16,12.30
2016,04,24,11,17,12.30
2016,04,24,11,18,12.40
2016,04,24,11,19,12.30
2016,04,24,11,20,12.30
2016,04,24,11,21,12.30
2016,04,24,11,22,12.20
2016,04,24,11,23,12.20
2016,04,24,11,24,12.20
2016,04,24,11,25,12.20
2016,04,24,11,26,12.20
2016,04,24,11,27,12.10
2016,04,24,11,28,12.10
2016,04,24,11,29,12.10
2016,04,24,11,30,12.00
2016,04,24,11,31,12.00
2016,04,24,11,32,11.90
2016,04,24,11,33,11.80
2016,04,24,11,34,11.80
2016,04,24,11,35,11.70
2016,04,24,11,36,11.70
2016,04,24,11,37,11.70
2016,04,24,11,38,11.70
2016,04,24,11,39,11.80
2016,04,24,11,40,11.90
2016,04,24,11,41,12.00
2016,04,24,11,42,12.10
2016,04,24,11,43,12.20
2016,04,24,11,44,12.20
2016,04,24,11,45,12.30
2016,04,24,11,46,12.20
2016,04,24,11,47,12.30
2016,04,24,11,48,12.30
2016,04,24,11,49,12.40
2016,04,24,11,50,12.50
2016,04,24,11,51,12.50
2016,04,24,11,52,12.60
2016,04,24,11,53,12.70
2016,04,24,11,54,12.80
2016,04,24,11,55,12.90
2016,04,24,11,56,12.90
2016,04,24,11,57,13.00
2016,04,24,11,58,13.10
2016,04,24,11,59,13.10
2016,04,24,12,00,13.20
2016,04,24,12,01,13.10
2016,04,24,12,02,13.10
2016,04,24,12,03,13.20
2016,04,24,12,04,13.20
2016,04,24,12,05,13.20
2016,04,24,12,06,13.20
2016,04,24,12,07,13.20
2016,04,24,12,08,13.20
2016,04,24,12,09,13.30
2016,04,24,12,10,13.30
2016,04,24,12,11,13.40
2016,04,24,12,12,13.40
2016,04,24,12,13,13.40
2016,04,24,12,14,13.40
2016,04,24,12,15,13.40
2016,04,24,12,16,13.50
2016,04,24,12,17,13.50
2016,04,24,12,18,13.60
2016,04,24,12,19,13.60
2016,04,24,12,20,13.60
2016,04,24,12,21,13.60
2016,04,24,12,22,13.60
2016,04,24,12,23,13.50
2016,04,24,12,24,13.40
2016,04,24,12,25,13.40
2016,04,24,12,26,13.30
2016,04,24,12,27,13.30
2016,04,24,12,28,13.30
2016,04,24,12,29,13.30
2016,04,24,12,30,13.30
2016,04,24,12,31,13.30
2016,04,24,12,32,13.30
2016,04,24,12,33,13.30
2016,04,24,12,34,13.30
2016,04,24,12,35,13.30
2016,04,24,12,36,13.30
2016,04,24,12,37,13.30
2016,04,24,12,38,13.30
2016,04,24,12,39,13.20
2016,04,24,12,40,13.10
2016,04,24,12,41,13.10
2016,04,24,12,42,13.00
2016,04,24,12,43,13.00
2016,04,24,12,44,12.90
2016,04,24,12,45,13.00
2016,04,24,12,46,13.00
2016,04,24,12,47,13.10
2016,04,24,12,48,13.20
2016,04,24,12,49,13.20
2016,04,24,12,50,13.30
2016,04,24,12,51,13.40
2016,04,24,12,52,13.40
2016,04,24,12,53,13.50
2016,04,24,12,54,13.60
2016,04,24,12,55,13.60
2016,04,24,12,56,13.60
2016,04,24,12,57,13.60
2016,04,24,12,58,13.60
2016,04,24,12,59,13.50
2016,04,24,13,00,13.40
2016,04,24,13,01,13.30
2016,04,24,13,02,13.30
2016,04,24,13,03,13.20
2016,04,24,13,04,13.10
2016,04,24,13,05,13.00
2016,04,24,13,06,12.90
2016,04,24,13,07,12.90
2016,04,24,13,08,12.90
2016,04,24,13,09,13.00
2016,04,24,13,10,13.00
2016,04,24,13,11,13.00
2016,04,24,13,12,13.10
2016,04,24,13,13,13.10
2016,04,24,13,14,13.20
2016,04,24,13,15,13.20
2016,04,24,13,16,13.20
2016,04,24,13,17,13.20
2016,04,24,13,18,13.20
2016,04,24,13,19,13.20
2016,04,24,13,20,13.20
2016,04,24,13,21,13.20
2016,04,24,13,22,13.20
2016,04,24,13,23,13.20
2016,04,24,13,24,13.20
2016,04,24,13,25,13.20
2016,04,24,13,26,13.20
2016,04,24,13,27,13.20
2016,04,24,13,28,13.20
2016,04,24,13,29,13.20
2016,04,24,13,30,13.20
2016,04,24,13,31,13.20
2016,04,24,13,32,13.20
2016,04,24,13,33,13.20
2016,04,24,13,34,13.20
2016,04,24,13,35,13.30
2016,04,24,13,36,13.30
2016,04,24,13,37,13.30
2016,04,24,13,38,13.40
2016,04,24,13,39,13.50
2016,04,24,13,40,13.50
2016,04,24,13,41,13.60
2016,04,24,13,42,13.60
2016,04,24,13,43,13.70
2016,04,24,13,44,13.70
2016,04,24,13,45,13.70
2016,04,24,13,46,13.70
2016,04,24,13,47,13.70
2016,04,24,13,48,13.70
2016,04,24,13,49,13.70
2016,04,24,13,50,13.70
2016,04,24,13,51,13.70
2016,04,24,13,52,13.70
2016,04,24,13,53,13.70
2016,04,24,13,54,13.70
2016,04,24,13,55,13.70
2016,04,24,13,56,13.50
2016,04,24,13,57,13.30
2016,04,24,13,58,13.20
2016,04,24,13,59,13.10
2016,04,24,14,00,13.00
2016,04,24,14,01,12.90
2016,04,24,14,02,12.90
2016,04,24,14,03,12.90
2016,04,24,14,04,12.90
2016,04,24,14,05,12.90
2016,04,24,14,06,13.00
2016,04,24,14,07,13.00
2016,04,24,14,08,13.00
2016,04,24,14,09,13.10
2016,04,24,14,10,13.20
2016,04,24,14,11,13.30
2016,04,24,14,12,13.30
2016,04,24,14,13,13.20
2016,04,24,14,14,13.20
2016,04,24,14,15,13.10
2016,04,24,14,16,13.10
2016,04,24,14,17,13.10
2016,04,24,14,18,13.00
2016,04,24,14,19,12.90
2016,04,24,14,20,12.90
2016,04,24,14,21,12.80
2016,04,24,14,22,12.80
2016,04,24,14,23,12.80
2016,04,24,14,24,12.80
2016,04,24,14,25,12.60
2016,04,24,14,26,12.60
2016,04,24,14,27,12.50
2016,04,24,14,28,12.50
2016,04,24,14,29,12.40
2016,04,24,14,30,12.40
2016,04,24,14,31,12.30
2016,04,24,14,32,12.40
2016,04,24,14,33,12.40
2016,04,24,14,34,12.50
2016,04,24,14,35,12.50
2016,04,24,14,36,12.50
2016,04,24,14,37,12.40
2016,04,24,14,38,12.30
2016,04,24,14,39,12.20
2016,04,24,14,40,12.20
2016,04,24,14,41,12.20
2016,04,24,14,42,12.20
2016,04,24,14,43,12.30
2016,04,24,14,44,12.30
2016,04,24,14,45,12.30
2016,04,24,14,46,12.30
2016,04,24,14,47,12.30
2016,04,24,14,48,12.30
2016,04,24,14,49,12.30
2016,04,24,14,50,12.30
2016,04,24,14,51,12.30
2016,04,24,14,52,12.30
2016,04,24,14,53,12.30
2016,04,24,14,54,12.30
2016,04,24,14,55,12.30
2016,04,24,14,56,12.30
2016,04,24,14,57,12.30
2016,04,24,14,58,12.30
2016,04,24,14,59,12.20
2016,04,24,15,00,12.20
2016,04,24,15,01,12.10
2016,04,24,15,02,12.10
2016,04,24,15,03,12.10
2016,04,24,15,04,12.10
2016,04,24,15,05,12.20
2016,04,24,15,06,12.20
2016,04,24,15,07,12.20
2016,04,24,15,08,12.30
2016,04,24,15,09,12.30
2016,04,24,15,10,12.40
2016,04,24,15,11,12.40
2016,04,24,15,12,12.50
2016,04,24,15,13,12.50
2016,04,24,15,14,12.50
2016,04,24,15,15,12.60
2016,04,24,15,16,12.60
2016,04,24,15,17,12.70
2016,04,24,15,18,12.60
2016,04,24,15,19,12.60
2016,04,24,15,20,12.60
2016,04,24,15,21,12.50
2016,04,24,15,22,12.50
2016,04,24,15,23,12.40
2016,04,24,15,24,12.50
2016,04,24,15,25,12.50
2016,04,24,15,26,12.60
2016,04,24,15,27,12.60
2016,04,24,15,28,12.60
2016,04,24,15,29,12.50
2016,04,24,15,30,12.50
2016,04,24,15,31,12.40
2016,04,24,15,32,12.30
2016,04,24,15,33,12.30
2016,04,24,15,34,12.30
2016,04,24,15,35,12.30
2016,04,24,15,36,12.30
2016,04,24,15,37,12.20
2016,04,24,15,38,12.20
2016,04,24,15,39,12.20
2016,04,24,15,40,12.20
2016,04,24,15,41,12.10
2016,04,24,15,42,12.10
2016,04,24,15,43,12.10
2016,04,24,15,44,12.10
2016,04,24,15,45,12.20
2016,04,24,15,46,12.20
2016,04,24,15,47,12.20
2016,04,24,15,48,12.20
2016,04,24,15,49,12.30
2016,04,24,15,50,12.30
2016,04,24,15,51,12.30
2016,04,24,15,52,12.30
2016,04,24,15,53,12.30
2016,04,24,15,54,12.30
2016,04,24,15,55,12.20
2016,04,24,15,56,12.20
2016,04,24,15,57,12.20
2016,04,24,15,58,12.20
2016,04,24,15,59,12.30
2016,04,24,16,00,12.30
2016,04,24,16,01,12.40
2016,04,24,16,02,12.40
2016,04,24,16,03,12.40
2016,04,24,16,04,12.50
2016,04,24,16,05,12.50
2016,04,24,16,06,12.60
2016,04,24,16,07,12.50
2016,04,24,16,08,12.50
2016,04,24,16,09,12.40
2016,04,24,16,10,12.40
2016,04,24,16,11,12.30
2016,04,24,16,12,12.30
2016,04,24,16,13,12.20
2016,04,24,16,14,12.20
2016,04,24,16,15,12.10
2016,04,24,16,16,12.10
2016,04,24,16,17,12.10
2016,04,24,16,18,12.10
2016,04,24,16,19,12.10
2016,04,24,16,20,12.00
2016,04,24,16,21,12.00
2016,04,24,16,22,12.00
2016,04,24,16,23,11.90
2016,04,24,16,24,11.90
2016,04,24,16,25,11.90
2016,04,24,16,26,11.90
2016,04,24,16,27,11.90
2016,04,24,16,28,11.90
2016,04,24,16,29,11.90
2016,04,24,16,30,11.90
2016,04,24,16,31,11.90
2016,04,24,16,32,11.90
2016,04,24,16,33,11.90
2016,04,24,16,34,11.90
2016,04,24,16,35,11.90
2016,04,24,16,36,11.90
2016,04,24,16,37,11.90
2016,04,24,16,38,11.90
2016,04,24,16,39,11.90
2016,04,24,16,40,11.80
2016,04,24,16,41,11.80
2016,04,24,16,42,11.70
2016,04,24,16,43,11.70
2016,04,24,16,44,11.60
2016,04,24,16,45,11.60
2016,04,24,16,46,11.60
2016,04,24,16,47,11.60
2016,04,24,16,48,11.50
2016,04,24,16,49,11.50
2016,04,24,16,50,11.50
2016,04,24,16,51,11.60
2016,04,24,16,52,11.60
2016,04,24,16,53,11.60
2016,04,24,16,54,11.60
2016,04,24,16,55,11.60
2016,04,24,16,56,11.60
2016,04,24,16,57,11.60
2016,04,24,16,58,11.60
2016,04,24,16,59,11.60
2016,04,24,17,00,11.60
2016,04,24,17,01,11.60
2016,04,24,17,02,11.60
2016,04,24,17,03,11.60
2016,04,24,17,04,11.70
2016,04,24,17,05,11.70
2016,04,24,17,06,11.60
2016,04,24,17,07,11.50
2016,04,24,17,08,11.40
2016,04,24,17,09,11.30
2016,04,24,17,10,11.30
2016,04,24,17,11,11.30
2016,04,24,17,12,11.30
2016,04,24,17,13,11.30
2016,04,24,17,14,11.30
2016,04,24,17,15,11.30
2016,04,24,17,16,11.40
2016,04,24,17,17,11.40
2016,04,24,17,18,11.40
2016,04,24,17,19,11.30
2016,04,24,17,20,11.30
2016,04,24,17,21,11.30
2016,04,24,17,22,11.30
2016,04,24,17,23,11.40
2016,04,24,17,24,11.40
2016,04,24,17,25,11.50
2016,04,24,17,26,11.50
2016,04,24,17,27,11.50
2016,04,24,17,28,11.60
2016,04,24,17,29,11.60
2016,04,24,17,30,11.70
2016,04,24,17,31,11.70
2016,04,24,17,32,11.80
2016,04,24,17,33,11.80
2016,04,24,17,34,11.90
2016,04,24,17,35,12.10
2016,04,24,17,36,12.20
2016,04,24,17,37,12.40
2016,04,24,17,38,12.50
2016,04,24,17,39,12.70
2016,04,24,17,40,12.80
2016,04,24,17,41,13.00
2016,04,24,17,42,13.10
2016,04,24,17,43,13.10
2016,04,24,17,44,13.10
2016,04,24,17,45,13.20
2016,04,24,17,46,13.20
2016,04,24,17,47,13.30
2016,04,24,17,48,13.30
2016,04,24,17,49,13.40
2016,04,24,17,50,13.40
2016,04,24,17,51,13.50
2016,04,24,17,52,13.50
2016,04,24,17,53,13.50
2016,04,24,17,54,13.50
2016,04,24,17,55,13.50
2016,04,24,17,56,13.50
2016,04,24,17,57,13.40
2016,04,24,17,58,13.50
2016,04,24,17,59,13.50
2016,04,24,18,00,13.50
2016,04,24,18,01,13.60
2016,04,24,18,02,13.60
2016,04,24,18,03,13.60
2016,04,24,18,04,13.50
2016,04,24,18,05,13.50
2016,04,24,18,06,13.40
2016,04,24,18,07,13.30
2016,04,24,18,08,13.30
2016,04,24,18,09,13.30
2016,04,24,18,10,13.30
2016,04,24,18,11,13.30
2016,04,24,18,12,13.30
2016,04,24,18,13,13.30
2016,04,24,18,14,13.30
2016,04,24,18,15,13.30
2016,04,24,18,16,13.30
2016,04,24,18,17,13.20
2016,04,24,18,18,13.10
2016,04,24,18,19,13.00
2016,04,24,18,20,12.90
2016,04,24,18,21,12.70
2016,04,24,18,22,12.60
2016,04,24,18,23,12.50
2016,04,24,18,24,12.40
2016,04,24,18,25,12.30
2016,04,24,18,26,12.20
2016,04,24,18,27,12.10
2016,04,24,18,28,12.00
2016,04,24,18,29,11.80
2016,04,24,18,30,11.70
2016,04,24,18,31,11.60
2016,04,24,18,32,11.50
2016,04,24,18,33,11.40
2016,04,24,18,34,11.30
2016,04,24,18,35,11.20
2016,04,24,18,36,11.20
2016,04,24,18,37,11.10
2016,04,24,18,38,11.10
2016,04,24,18,39,11.10
2016,04,24,18,40,11.10
2016,04,24,18,41,11.00
2016,04,24,18,42,11.00
2016,04,24,18,43,11.00
2016,04,24,18,44,10.90
2016,04,24,18,45,10.90
2016,04,24,18,46,10.90
2016,04,24,18,47,10.90
2016,04,24,18,48,10.90
2016,04,24,18,49,10.90
2016,04,24,18,50,10.90
2016,04,24,18,51,10.90
2016,04,24,18,52,10.80
2016,04,24,18,53,10.80
2016,04,24,18,54,10.80
2016,04,24,18,55,10.80
2016,04,24,18,56,10.70
2016,04,24,18,57,10.70
2016,04,24,18,58,10.70
2016,04,24,18,59,10.60
2016,04,24,19,00,10.60
2016,04,24,19,01,10.60
2016,04,24,19,02,10.60
2016,04,24,19,03,10.60
2016,04,24,19,04,10.50
2016,04,24,19,05,10.50
2016,04,24,19,06,10.50
2016,04,24,19,07,10.50
2016,04,24,19,08,10.50
2016,04,24,19,09,10.50
2016,04,24,19,10,10.50
2016,04,24,19,11,10.40
2016,04,24,19,12,10.40
2016,04,24,19,13,10.40
2016,04,24,19,14,10.40
2016,04,24,19,15,10.40
2016,04,24,19,16,10.40
2016,04,24,19,17,10.40
2016,04,24,19,18,10.40
2016,04,24,19,19,10.40
2016,04,24,19,20,10.40
2016,04,24,19,21,10.30
2016,04,24,19,22,10.30
2016,04,24,19,23,10.30
2016,04,24,19,24,10.30
2016,04,24,19,25,10.30
2016,04,24,19,26,10.20
2016,04,24,19,27,10.20
2016,04,24,19,28,10.20
2016,04,24,19,29,10.20
2016,04,24,19,30,10.20
2016,04,24,19,31,10.20
2016,04,24,19,32,10.20
2016,04,24,19,33,10.20
2016,04,24,19,34,10.20
2016,04,24,19,35,10.20
2016,04,24,19,36,10.20
2016,04,24,19,37,10.20
2016,04,24,19,38,10.20
2016,04,24,19,39,10.20
2016,04,24,19,40,10.20
2016,04,24,19,41,10.20
2016,04,24,19,42,10.20
2016,04,24,19,43,10.20
2016,04,24,19,44,10.20
2016,04,24,19,45,10.20
2016,04,24,19,46,10.10
2016,04,24,19,47,10.10
2016,04,24,19,48,10.10
2016,04,24,19,49,10.00
2016,04,24,19,50,10.00
2016,04,24,19,51,9.90
2016,04,24,19,52,9.90
2016,04,24,19,53,9.80
2016,04,24,19,54,9.80
2016,04,24,19,55,9.80
2016,04,24,19,56,9.80
2016,04,24,19,57,9.70
2016,04,24,19,58,9.70
2016,04,24,19,59,9.70
2016,04,24,20,00,9.60
2016,04,24,20,01,9.60
2016,04,24,20,02,9.50
2016,04,24,20,03,9.50
2016,04,24,20,04,9.40
2016,04,24,20,05,9.40
2016,04,24,20,06,9.40
2016,04,24,20,07,9.40
2016,04,24,20,08,9.40
2016,04,24,20,09,9.30
2016,04,24,20,10,9.30
2016,04,24,20,11,9.30
2016,04,24,20,12,9.30
2016,04,24,20,13,9.30
2016,04,24,20,14,9.20
2016,04,24,20,15,9.20
2016,04,24,20,16,9.20
2016,04,24,20,17,9.20
2016,04,24,20,18,9.20
2016,04,24,20,19,9.20
2016,04,24,20,20,9.10
2016,04,24,20,21,9.10
2016,04,24,20,22,9.10
2016,04,24,20,23,9.10
2016,04,24,20,24,9.10
2016,04,24,20,25,9.10
2016,04,24,20,26,9.00
2016,04,24,20,27,9.00
2016,04,24,20,28,9.00
2016,04,24,20,29,9.00
2016,04,24,20,30,9.00
2016,04,24,20,31,9.00
2016,04,24,20,32,8.90
2016,04,24,20,33,8.90
2016,04,24,20,34,8.90
2016,04,24,20,35,8.90
2016,04,24,20,36,8.90
2016,04,24,20,37,8.90
2016,04,24,20,38,8.90
2016,04,24,20,39,8.80
2016,04,24,20,40,8.80
2016,04,24,20,41,8.80
2016,04,24,20,42,8.80
2016,04,24,20,43,8.70
2016,04,24,20,44,8.70
2016,04,24,20,45,8.70
2016,04,24,20,46,8.60
2016,04,24,20,47,8.60
2016,04,24,20,48,8.50
2016,04,24,20,49,8.40
2016,04,24,20,50,8.40
2016,04,24,20,51,8.30
2016,04,24,20,52,8.30
2016,04,24,20,53,8.20
2016,04,24,20,54,8.20
2016,04,24,20,55,8.10
2016,04,24,20,56,8.00
2016,04,24,20,57,8.00
2016,04,24,20,58,7.90
2016,04,24,20,59,7.90
2016,04,24,21,00,7.90
2016,04,24,21,01,7.90
2016,04,24,21,02,7.90
2016,04,24,21,03,7.90
2016,04,24,21,04,7.90
2016,04,24,21,05,7.90
2016,04,24,21,06,7.90
2016,04,24,21,07,7.90
2016,04,24,21,08,7.90
2016,04,24,21,09,7.80
2016,04,24,21,10,7.80
2016,04,24,21,11,7.80
2016,04,24,21,12,7.80
2016,04,24,21,13,7.80
2016,04,24,21,14,7.80
2016,04,24,21,15,7.80
2016,04,24,21,16,7.80
2016,04,24,21,17,7.90
2016,04,24,21,18,7.90
2016,04,24,21,19,7.90
2016,04,24,21,20,7.90
2016,04,24,21,21,7.90
2016,04,24,21,22,7.90
2016,04,24,21,23,8.00
2016,04,24,21,24,8.00
2016,04,24,21,25,8.10
2016,04,24,21,26,8.20
2016,04,24,21,27,8.20
2016,04,24,21,28,8.30
2016,04,24,21,29,8.40
2016,04,24,21,30,8.40
2016,04,24,21,31,8.50
2016,04,24,21,32,8.50
2016,04,24,21,33,8.50
2016,04,24,21,34,8.60
2016,04,24,21,35,8.60
2016,04,24,21,36,8.60
2016,04,24,21,37,8.70
2016,04,24,21,38,8.70
2016,04,24,21,39,8.80
2016,04,24,21,40,8.80
2016,04,24,21,41,8.80
2016,04,24,21,42,8.80
2016,04,24,21,43,8.80
2016,04,24,21,44,8.80
2016,04,24,21,45,8.90
2016,04,24,21,46,8.90
2016,04,24,21,47,8.90
2016,04,24,21,48,8.90
2016,04,24,21,49,8.90
2016,04,24,21,50,8.90
2016,04,24,21,51,8.90
2016,04,24,21,52,8.90
2016,04,24,21,53,9.00
2016,04,24,21,54,9.00
2016,04,24,21,55,9.00
2016,04,24,21,56,9.00
2016,04,24,21,57,9.10
2016,04,24,21,58,9.10
2016,04,24,21,59,9.10
2016,04,24,22,00,9.10
2016,04,24,22,01,9.10
2016,04,24,22,02,9.10
2016,04,24,22,03,9.10
2016,04,24,22,04,9.10
2016,04,24,22,05,9.20
2016,04,24,22,06,9.10
2016,04,24,22,07,9.10
2016,04,24,22,08,9.10
2016,04,24,22,09,9.10
2016,04,24,22,10,9.10
2016,04,24,22,11,9.10
2016,04,24,22,12,9.10
2016,04,24,22,13,9.10
2016,04,24,22,14,9.10
2016,04,24,22,15,9.10
2016,04,24,22,16,9.10
2016,04,24,22,17,9.10
2016,04,24,22,18,9.10
2016,04,24,22,19,9.10
2016,04,24,22,20,9.10
2016,04,24,22,21,9.10
2016,04,24,22,22,9.10
2016,04,24,22,23,9.10
2016,04,24,22,24,9.10
2016,04,24,22,25,9.10
2016,04,24,22,26,9.10
2016,04,24,22,27,9.10
2016,04,24,22,28,9.10
2016,04,24,22,29,9.10
2016,04,24,22,30,9.10
2016,04,24,22,31,9.10
2016,04,24,22,32,9.10
2016,04,24,22,33,9.10
2016,04,24,22,34,9.10
2016,04,24,22,35,9.10
2016,04,24,22,36,9.10
2016,04,24,22,37,9.10
2016,04,24,22,38,9.10
2016,04,24,22,39,9.10
2016,04,24,22,40,9.10
2016,04,24,22,41,9.10
2016,04,24,22,42,9.10
2016,04,24,22,43,9.10
2016,04,24,22,44,9.10
2016,04,24,22,45,9.10
2016,04,24,22,46,9.00
2016,04,24,22,47,9.10
2016,04,24,22,48,9.00
2016,04,24,22,49,9.00
2016,04,24,22,50,9.00
2016,04,24,22,51,9.10
2016,04,24,22,52,9.00
2016,04,24,22,53,9.00
2016,04,24,22,54,9.00
2016,04,24,22,55,9.00
2016,04,24,22,56,9.00
2016,04,24,22,57,9.00
2016,04,24,22,58,9.00
2016,04,24,22,59,9.00
2016,04,24,23,00,9.00
2016,04,24,23,01,8.90
2016,04,24,23,02,8.90
2016,04,24,23,03,8.90
2016,04,24,23,04,8.90
2016,04,24,23,05,8.90
2016,04,24,23,06,8.90
2016,04,24,23,07,8.90
2016,04,24,23,08,8.90
2016,04,24,23,09,8.80
2016,04,24,23,10,8.90
2016,04,24,23,11,8.80
2016,04,24,23,12,8.80
2016,04,24,23,13,8.80
2016,04,24,23,14,8.80
2016,04,24,23,15,8.80
2016,04,24,23,16,8.80
2016,04,24,23,17,8.80
2016,04,24,23,18,8.80
2016,04,24,23,19,8.80
2016,04,24,23,20,8.80
2016,04,24,23,21,8.80
2016,04,24,23,22,8.80
2016,04,24,23,23,8.80
2016,04,24,23,24,8.80
2016,04,24,23,25,8.80
2016,04,24,23,26,8.80
2016,04,24,23,27,8.80
2016,04,24,23,28,8.80
2016,04,24,23,29,8.80
2016,04,24,23,30,8.80
2016,04,24,23,31,8.80
2016,04,24,23,32,8.80
